When you browse on this site, cookies collect data to enhance your experience and personalize the content and advertising you see.
Visit our Privacy Policy to learn more. By continuing to use the site, you agree to this use of cookies and data.
  • en Suisse
  • Liste des pays
  • À 7 jours
  • Température de l'eau
  • Carte satellitaire
  • Carte météo
  • Widgets météo
  • user-avatar
    Se connecter

    Météo par heure à Nasiriyah

    Ce jour, 17 Décembre, Lundi

    Heure Température Précipitation Vent Pression Humidité
    00:00 +17°C° 0 mm 2 m/s 767 mmHg 31%
    01:00 +16°C° 0 mm 2 m/s 767 mmHg 32%
    02:00 +16°C° 0 mm 2 m/s 766 mmHg 32%
    03:00 +16°C° 0 mm 2 m/s 766 mmHg 34%
    04:00 +16°C° 0 mm 3 m/s 766 mmHg 34%
    05:00 +15°C° 0 mm 4 m/s 766 mmHg 34%
    06:00 +15°C° 0 mm 4 m/s 765 mmHg 34%
    07:00 +16°C° 0 mm 5 m/s 765 mmHg 35%
    08:00 +16°C° 0 mm 5 m/s 765 mmHg 35%
    09:00 +17°C° 0 mm 5 m/s 765 mmHg 34%
    10:00 +19°C° 0 mm 6 m/s 765 mmHg 34%
    11:00 +20°C° 0 mm 6 m/s 764 mmHg 34%
    12:00 +20°C° 0 mm 7 m/s 764 mmHg 33%
    13:00 +21°C° 0 mm 7 m/s 763 mmHg 34%
    14:00 +21°C° 0 mm 6 m/s 763 mmHg 35%
    15:00 +21°C° 0 mm 6 m/s 762 mmHg 36%
    16:00 +21°C° 0 mm 6 m/s 762 mmHg 36%
    17:00 +21°C° 0 mm 6 m/s 762 mmHg 36%
    18:00 +21°C° 0 mm 6 m/s 762 mmHg 36%
    19:00 +21°C° 0.2 mm 6 m/s 762 mmHg 38%
    20:00 +21°C° 0.2 mm 7 m/s 762 mmHg 40%
    21:00 +21°C° 0.2 mm 7 m/s 762 mmHg 42%
    22:00 +20°C° 0.6 mm 7 m/s 762 mmHg 46%
    23:00 +20°C° 0.6 mm 6 m/s 762 mmHg 50%

    Demain, 18 Décembre, Mardi

    Heure Température Précipitation Vent Pression Humidité
    00:00 +20°C° 0.6 mm 6 m/s 763 mmHg 54%
    01:00 +19°C° 0.5 mm 6 m/s 763 mmHg 58%
    02:00 +19°C° 0.5 mm 5 m/s 763 mmHg 62%
    03:00 +17°C° 0.5 mm 5 m/s 763 mmHg 66%
    04:00 +17°C° 0.1 mm 5 m/s 763 mmHg 68%
    05:00 +18°C° 0.1 mm 4 m/s 763 mmHg 70%
    06:00 +17°C° 0.1 mm 4 m/s 764 mmHg 72%
    07:00 +18°C° 0 mm 4 m/s 764 mmHg 70%
    08:00 +18°C° 0 mm 4 m/s 764 mmHg 68%
    09:00 +19°C° 0 mm 5 m/s 765 mmHg 65%
    10:00 +20°C° 0 mm 4 m/s 765 mmHg 61%
    11:00 +21°C° 0 mm 4 m/s 765 mmHg 57%
    12:00 +21°C° 0 mm 3 m/s 765 mmHg 53%
    13:00 +22°C° 0 mm 3 m/s 765 mmHg 51%
    14:00 +22°C° 0 mm 3 m/s 765 mmHg 48%
    15:00 +24°C° 0 mm 3 m/s 764 mmHg 46%
    16:00 +22°C° 0 mm 3 m/s 765 mmHg 49%
    17:00 +21°C° 0 mm 3 m/s 765 mmHg 53%
    18:00 +21°C° 0 mm 3 m/s 765 mmHg 57%
    19:00 +20°C° 0 mm 3 m/s 765 mmHg 60%
    20:00 +19°C° 0 mm 3 m/s 766 mmHg 64%
    21:00 +19°C° 0 mm 3 m/s 766 mmHg 68%
    22:00 +19°C° 0 mm 3 m/s 766 mmHg 70%
    23:00 +18°C° 0 mm 3 m/s 766 mmHg 72%

    Après-demain, 19 Décembre, Mercredi

    Heure Température Précipitation Vent Pression Humidité
    00:00 +18°C° 0 mm 3 m/s 766 mmHg 73%
    01:00 +17°C° 0 mm 2 m/s 766 mmHg 74%
    02:00 +17°C° 0 mm 2 m/s 766 mmHg 75%
    03:00 +17°C° 0 mm 2 m/s 766 mmHg 76%
    04:00 +17°C° 0 mm 2 m/s 766 mmHg 76%
    05:00 +16°C° 0 mm 2 m/s 766 mmHg 76%
    06:00 +16°C° 0 mm 2 m/s 766 mmHg 76%
    07:00 +17°C° 0 mm 2 m/s 766 mmHg 72%
    08:00 +17°C° 0 mm 2 m/s 766 mmHg 68%
    09:00 +19°C° 0 mm 1 m/s 766 mmHg 64%
    10:00 +20°C° 0 mm 1 m/s 766 mmHg 62%
    11:00 +21°C° 0 mm 1 m/s 766 mmHg 59%
    12:00 +20°C° 0 mm 0 m/s 765 mmHg 56%
    13:00 +20°C° 0 mm 0 m/s 765 mmHg 53%
    14:00 +21°C° 0 mm 0 m/s 764 mmHg 49%
    15:00 +21°C° 0 mm 0 m/s 764 mmHg 46%
    16:00 +21°C° 0 mm 0 m/s 764 mmHg 48%
    17:00 +22°C° 0 mm 1 m/s 764 mmHg 50%
    18:00 +22°C° 0 mm 1 m/s 764 mmHg 52%
    19:00 +21°C° 0 mm 1 m/s 764 mmHg 53%
    20:00 +20°C° 0 mm 2 m/s 764 mmHg 54%
    21:00 +20°C° 0 mm 2 m/s 764 mmHg 55%
    22:00 +19°C° 0 mm 2 m/s 764 mmHg 56%
    23:00 +19°C° 0 mm 3 m/s 764 mmHg 57%

    20 Décembre, Jeudi

    Heure Température Précipitation Vent Pression Humidité
    00:00 +19°C° 0 mm 3 m/s 763 mmHg 59%
    01:00 +19°C° 0 mm 3 m/s 763 mmHg 58%
    02:00 +18°C° 0 mm 4 m/s 763 mmHg 58%
    03:00 +18°C° 0 mm 4 m/s 762 mmHg 57%
    04:00 +17°C° 0 mm 5 m/s 762 mmHg 55%
    05:00 +19°C° 0 mm 5 m/s 762 mmHg 52%
    06:00 +19°C° 0 mm 5 m/s 762 mmHg 50%
    07:00 +19°C° 0 mm 5 m/s 762 mmHg 47%
    08:00 +20°C° 0 mm 5 m/s 763 mmHg 44%
    09:00 +20°C° 0 mm 5 m/s 763 mmHg 41%
    10:00 +21°C° 0 mm 5 m/s 763 mmHg 39%
    11:00 +22°C° 0 mm 5 m/s 762 mmHg 37%
    12:00 +23°C° 0 mm 6 m/s 762 mmHg 35%
    13:00 +25°C° 0 mm 5 m/s 762 mmHg 35%
    14:00 +25°C° 0 mm 4 m/s 761 mmHg 34%
    15:00 +26°C° 0 mm 4 m/s 761 mmHg 34%
    16:00 +25°C° 0 mm 4 m/s 761 mmHg 35%
    17:00 +23°C° 0 mm 4 m/s 762 mmHg 37%
    18:00 +22°C° 0 mm 3 m/s 762 mmHg 39%
    19:00 +21°C° 0 mm 4 m/s 762 mmHg 40%
    20:00 +20°C° 0 mm 4 m/s 763 mmHg 42%
    21:00 +19°C° 0 mm 4 m/s 763 mmHg 43%
    22:00 +19°C° 0 mm 4 m/s 763 mmHg 44%
    23:00 +18°C° 0 mm 4 m/s 763 mmHg 45%

    21 Décembre, Vendredi

    Heure Température Précipitation Vent Pression Humidité
    00:00 +18°C° 0 mm 4 m/s 763 mmHg 45%
    01:00 +17°C° 0 mm 4 m/s 763 mmHg 46%
    02:00 +17°C° 0 mm 4 m/s 763 mmHg 47%
    03:00 +17°C° 0 mm 4 m/s 763 mmHg 48%
    04:00 +16°C° 0 mm 3 m/s 763 mmHg 49%
    05:00 +16°C° 0 mm 3 m/s 763 mmHg 50%
    06:00 +16°C° 0 mm 3 m/s 764 mmHg 51%
    07:00 +17°C° 0 mm 3 m/s 764 mmHg 48%
    08:00 +17°C° 0 mm 3 m/s 764 mmHg 46%
    09:00 +18°C° 0 mm 4 m/s 764 mmHg 44%
    10:00 +19°C° 0 mm 4 m/s 764 mmHg 40%
    11:00 +21°C° 0 mm 4 m/s 764 mmHg 37%
    12:00 +22°C° 0 mm 5 m/s 764 mmHg 34%
    13:00 +22°C° 0 mm 5 m/s 763 mmHg 33%
    14:00 +22°C° 0 mm 5 m/s 763 mmHg 32%
    15:00 +22°C° 0 mm 6 m/s 762 mmHg 31%
    16:00 +22°C° 0 mm 5 m/s 763 mmHg 34%
    17:00 +21°C° 0 mm 5 m/s 763 mmHg 37%
    18:00 +20°C° 0 mm 4 m/s 763 mmHg 39%
    19:00 +19°C° 0 mm 4 m/s 763 mmHg 42%
    20:00 +19°C° 0 mm 4 m/s 764 mmHg 45%
    21:00 +17°C° 0 mm 5 m/s 764 mmHg 48%
    22:00 +17°C° 0 mm 5 m/s 764 mmHg 50%
    23:00 +16°C° 0 mm 5 m/s 764 mmHg 53%

    22 Décembre, Samedi

    Heure Température Précipitation Vent Pression Humidité
    00:00 +16°C° 0 mm 5 m/s 764 mmHg 55%
    01:00 +15°C° 0 mm 5 m/s 764 mmHg 57%
    02:00 +15°C° 0 mm 4 m/s 763 mmHg 59%
    03:00 +15°C° 0 mm 4 m/s 763 mmHg 61%
    04:00 +14°C° 0 mm 4 m/s 763 mmHg 62%
    05:00 +14°C° 0 mm 4 m/s 764 mmHg 64%
    06:00 +14°C° 0 mm 4 m/s 764 mmHg 66%
    07:00 +14°C° 0 mm 4 m/s 764 mmHg 62%
    08:00 +15°C° 0 mm 5 m/s 764 mmHg 59%
    09:00 +16°C° 0 mm 5 m/s 765 mmHg 56%
    10:00 +17°C° 0 mm 5 m/s 764 mmHg 51%
    11:00 +19°C° 0 mm 6 m/s 764 mmHg 47%
    12:00 +20°C° 0 mm 6 m/s 764 mmHg 42%
    13:00 +20°C° 0 mm 6 m/s 763 mmHg 41%
    14:00 +20°C° 0 mm 6 m/s 763 mmHg 40%
    15:00 +21°C° 0 mm 6 m/s 763 mmHg 38%
    16:00 +20°C° 0 mm 5 m/s 763 mmHg 40%
    17:00 +19°C° 0 mm 5 m/s 763 mmHg 42%
    18:00 +19°C° 0 mm 4 m/s 764 mmHg 44%
    19:00 +18°C° 0 mm 4 m/s 764 mmHg 45%
    20:00 +18°C° 0 mm 4 m/s 764 mmHg 47%
    21:00 +17°C° 0 mm 4 m/s 764 mmHg 49%
    22:00 +17°C° 0 mm 4 m/s 764 mmHg 51%
    23:00 +15°C° 0 mm 4 m/s 764 mmHg 52%
    Voir plus